Simultaneous Nadir Overpasses (SNOs) Predictions

Prediction of SNOs between NOAA-15 and METOP-C Satellite Orbit:

Table of predicted SNOs for the next 14.0 days since TLE Epoch: 2/9/2019
Index Date (NOAA-15) Time (NOAA-15) Lat,Lon (NOAA-15) SZA (NOAA-15 ) Date (METOP-C) Time (METOP-C) Lat,Lon (METOP-C) SZA (METOP-C ) Distance(km) Time Diff (sec)
1 02/23/2019 19:25:42 -80.76, 100.95 88.43 02/23/2019 19:24:34 -80.75, 101.03 88.45 1.74 68
2 02/23/2019 20:16:16 80.75, -91.52 91.57 02/23/2019 20:15:14 80.75, -91.64 91.54 2.21 62
3 02/23/2019 21:06:44 -80.75, 75.98 88.45 02/23/2019 21:05:55 -80.77, 75.91 88.45 2.40 49




NCC Satellite Simultaneous Nadir Overpasses (SNOs) Prediction Service
